Regional Weather Roundup
Issued by NWS

Home | Current Version | Previous Version | Graphics & Text | Print | Product List | Glossary On
Versions: 1 2 3 4 5 6 7 8 9 10 11 12 13 14 15 16 17 18 19 20 21 22 23 24 25 26 27 28 29 30 31 32 33 34 35 36 37 38 39 40 41 42 43 44 45 46 47 48 49 50
000
ASUS43 KLMK 252310
RWRKY
KENTUCKY REGIONAL WEATHER ROUNDUP
NATIONAL WEATHER SERVICE LOUISVILLE KY
600 PM EST SUN JAN 25 2015

NOTE "FAIR" INDICATES FEW OR NO CLOUDS BELOW 12,000 FEET
WITH NO SIGNIFICANT WEATHER AND/OR OBSTRUCTIONS TO VISIBILITY.

KYZ001>023-026-027-061>063-070>075-260000-
WESTERN AND SOUTH CENTRAL KENTUCKY

CITY           SKY/WX    TMP DP  RH WIND       PRES   REMARKS
PADUCAH        LGT RAIN  43  41  93 SW14      29.67R FOG
HENDERSON      CLOUDY    41  36  81 SW7       29.63R
OWENSBORO      LGT RAIN  41  39  92 SW7       29.63R
HOPKINSVILLE   LGT RAIN  41  39  93 W10       29.67R
BOWLING GREEN  LGT RAIN  46  41  82 SW10      29.65R
GLASGOW        LGT RAIN  44  44 100 SW3       29.65R
$$

KYZ024-025-028>034-038-045-046-053-260000-
NORTH CENTRAL KENTUCKY

CITY           SKY/WX    TMP DP  RH WIND       PRES   REMARKS
LOUISVILLE/SDF LGT RAIN  42  39  89 NW3       29.64R
LOUISVILLE/LOU CLOUDY    42  40  92 CALM      29.64R
FORT KNOX      CLOUDY    41  39  93 CALM      29.62R FOG
$$

KYZ035>037-039>044-047>052-055>060-089>105-260000-
NORTHEAST KENTUCKY

CITY           SKY/WX    TMP DP  RH WIND       PRES   REMARKS
LEXINGTON      LGT RAIN  43  36  76 S6        29.65R
COVINGTON      LGT RAIN  39  36  89 E3        29.66R FOG
FRANKFORT      LGT RAIN  40  36  86 CALM      29.63S
$$

KYZ054-064>069-076>088-106>120-260000-
SOUTHEAST KENTUCKY

CITY           SKY/WX    TMP DP  RH WIND       PRES   REMARKS
JACKSON        LGT RAIN  47  33  58 VRB5      29.68S
LONDON         CLOUDY    49  30  48 S7        29.66S
SOMERSET       CLOUDY    46  32  57 S3        29.66S
MIDDLESBORO    CLOUDY    46  35  64 CALM      29.68F
MONTICELLO     CLOUDY    50  35  56 SE10      29.66F
$$




USA.gov is the U.S. government's official web portal to all federal, state and local government web resources and services.